Regional Weather Roundup
Issued by NWS

Home | Current Version | Previous Version | Text Only | Print | Product List | Glossary Off
Versions: 1 2 3 4 5 6 7 8 9 10 11 12 13 14 15 16 17 18 19 20 21 22 23 24 25 26 27 28 29 30 31 32 33 34 35 36 37 38 39 40 41 42 43 44 45 46 47 48 49 50

000
ASUS43 KDTX 290201
RWRMI
MICHIGAN HOURLY REGIONAL WEATHER ROUNDUP
NATIONAL WEATHER SERVICE DETROIT/PONTIAC MI
1000 PM EDT THU MAY 28 2015

NOTE: "FAIR" INDICATES FEW OR NO CLOUDS BELOW 12,000 FEET WITH NO
SIGNIFICANT WEATHER AND/OR OBSTRUCTION TO VISIBILITY.

MIZ047>049-052>055-059>063-066>070-074>076-081>083-290300-
SOUTHEAST LOWER MICHIGAN

CITY           SKY/WX    TMP DP  RH WIND       PRES   REMARKS
ADRIAN         CLEAR     66  55  67 SE7       30.20S
ALMA           CLEAR     68  58  69 SE5       30.17S
ANN ARBOR      CLEAR     58  52  80 CALM      30.20S
BAD AXE        CLEAR     68  55  64 S7        30.20S
CARO           CLEAR     66  58  75 SE3       30.19R
DETROIT CITY   CLEAR     66  52  60 SE7       30.22R
DETROIT        PTCLDY    71  52  50 E6        30.21R
FLINT          CLEAR     69  55  60 S8        30.19R
GROSSE ILE     CLEAR     66  57  72 CALM      30.20R
HILLSDALE      CLEAR     68  54  60 E7        30.20R
HOWELL         CLEAR     66  52  60 SE6       30.20S

CITY           SKY/WX    TMP DP  RH WIND       PRES   REMARKS
JACKSON        CLEAR     67  54  63 SE6       30.19S
LAMBERTVILLE   CLEAR     64  57  77 CALM      30.20S
LANSING        CLEAR     70  55  59 SE8       30.18S
LAPEER         FAIR      66  53  62 S3        30.21R
MASON          CLEAR     63  55  75 SE5       30.19S
MONROE         CLEAR     64  55  72 E7        30.19S
PONTIAC        PTCLDY    69  51  52 SE7       30.21R
PORT HOPE        N/A     68  59  73 SE5       30.18S
PORT HURON     CLEAR     63  54  72 S3        30.22R
TRI CITIES     CLEAR     74  57  55 S9        30.18R
MIDLAND        FAIR      71  56  59 S5        30.16R
TROY           CLEAR     70  49  47 E3        30.24R
SAGINAW HB     CLEAR     70  57  64 S7        30.18R
$$
MIZ043>046-050>051-056>058-064>065-071>073-077>080-290300-
SOUTHWEST LOWER MICHIGAN

CITY           SKY/WX    TMP DP  RH WIND       PRES   REMARKS
BATTLE CREEK   CLEAR     73  55  53 SE6       30.17F
BENTON HARBOR  PTCLDY    66  57  72 E3        30.12F
BIG RAPIDS     PTCLDY    67  58  72 CALM      30.15S
COLDWATER      CLEAR     68  54  60 E6        30.17S
FREMONT        FAIR      67  61  81 CALM      30.14S
HOLLAND        CLEAR     68  56  65 E5        30.14S
GRAND RAPIDS   MOCLDY    70  56  61 SE6       30.15S
IONIA          FAIR      69  56  63 SE7       30.16R
KALAMAZOO      CLEAR     70  55  59 CALM      30.16S
LUDINGTON      CLEAR     64  59  84 CALM      30.13S
MARSHALL       CLEAR     68  56  63 CALM      30.17S
MOUNT PLEASANT CLEAR     72  56  57 CALM      30.16S
MUSKEGON       MOCLDY    68  59  73 CALM      30.13F
SOUTH HAVEN    CLEAR     66  58  74 CALM      30.12F
$$
MIZ016>042-290300-
NORTHERN LOWER MICHIGAN

CITY           SKY/WX    TMP DP  RH WIND       PRES   REMARKS
ALPENA         PTCLDY    60  53  77 SE5       30.16S
BEAVER ISLAND  PTCLDY    57  54  91 CALM      30.13F
BELLAIRE       MOCLDY    64  60  87 CALM      30.13S
CADILLAC       CLEAR     68  60  74 CALM      30.16R
CHARLEVOIX     PTCLDY    62  56  83 SE3       30.16S
FRANKFORT      PTCLDY    64  54  69 CALM      30.12S
GAYLORD        CLEAR     69  60  73 CALM      30.15F
GRAYLING       CLEAR     65  59  82 CALM      30.16S
HARBOR SPRINGS PTCLDY    58  54  86 CALM      30.13F
HOUGHTON LAKE  PTCLDY    69  60  73 S6        30.17R
MANISTEE       CLEAR     66  54  63 CALM      30.13F
OSCODA         CLEAR     63  55  76 CALM      30.16S
PELLSTON       PTCLDY    62  57  83 W6        30.13F
ROGERS CITY    PTCLDY    54  50  86 CALM      30.15S
TRAVERSE CITY  PTCLDY    60  54  80 E5        30.12S
$$
MIZ007>008-015-290300-
EASTERN UPPER MICHIGAN

CITY           SKY/WX    TMP DP  RH WIND       PRES   REMARKS
KINROSS        PTCLDY    61  54  77 SE7       30.15S
MACKINAC ISLAN PTCLDY    46  44  95 E5        30.15F
NEWBERRY       PTCLDY    60  56  87 S6        30.13R
S. S. MARIE    PTCLDY    59  52  77 E5        30.15S
$$
MIZ004>006-011>014-085-290300-
CENTRAL UPPER MICHIGAN

CITY           SKY/WX    TMP DP  RH WIND       PRES   REMARKS
MANISTIQUE     MOCLDY    52  50  94 SE5       30.11S FOG
ESCANABA       MOCLDY    55  50  82 E6        30.06F
MENOMINEE      PTCLDY    70  54  56 S7        30.05S
SAWYER-GWINN   PTCLDY    66  57  72 S8        30.05F
$$
MIZ001>003-009>011-084-290300-
WESTERN UPPER MICHIGAN

CITY           SKY/WX    TMP DP  RH WIND       PRES   REMARKS
IRON MOUNTAIN  MOCLDY    66  61  84 S6        30.03S
HOUGHTON       PTCLDY    48  47  96 CALM      29.98F
COPPER HARBOR    N/A     61  55  81 SW9G18    29.95F
IRONWOOD       CLEAR     73  52  46 S7        29.93R
$$

ABBREVIATIONS USED IN REMARKS
   TC - TEMPERATURE IN CELSIUS
  WCI - WIND CHILL INDEX
   HX - HEAT INDEX
  VSB - VISIBILITY




USA.gov is the U.S. government's official web portal to all federal, state and local government web resources and services.